�������l�o���
Date,Time,MP-1(��Sv/h),MP-2(��Sv/h),MP-3(��Sv/h),MP-4(��Sv/h),MP-5(��Sv/h),MP-6(��Sv/h),MP-7(��Sv/h),MP-8(��Sv/h),����,����(m/s),���J
2017/11/06,00:00,0.896,1.442,0.909,1.713,1.171,0.495,0.904,0.843,��,3.2,��
2017/11/06,00:10,0.897,1.441,0.909,1.711,1.169,0.495,0.906,0.843,��,3.5,��
2017/11/06,00:20,0.898,1.443,0.910,1.713,1.171,0.495,0.904,0.844,��,3.3,��
2017/11/06,00:30,0.897,1.441,0.907,1.711,1.170,0.497,0.905,0.844,��,3.6,��
2017/11/06,00:40,0.899,1.442,0.907,1.711,1.172,0.497,0.906,0.842,��,3.4,��
2017/11/06,00:50,0.900,1.442,0.908,1.712,1.172,0.497,0.906,0.841,��,3.7,��
2017/11/06,01:00,0.897,1.441,0.909,1.712,1.170,0.495,0.904,0.843,���쐼,4.7,��
2017/11/06,01:10,0.896,1.443,0.907,1.713,1.172,0.496,0.903,0.842,�쐼,4.8,��
2017/11/06,01:20,0.898,1.444,0.908,1.712,1.171,0.497,0.904,0.841,�쐼,4.9,��
2017/11/06,01:30,0.898,1.444,0.909,1.713,1.170,0.495,0.904,0.843,�쐼,4.6,��
2017/11/06,01:40,0.898,1.441,0.910,1.713,1.168,0.494,0.902,0.842,�쐼,3.1,��
2017/11/06,01:50,0.898,1.442,0.909,1.713,1.170,0.496,0.905,0.842,�쐼,3.5,��
2017/11/06,02:00,0.896,1.441,0.909,1.710,1.169,0.496,0.904,0.842,�쐼,3.7,��
2017/11/06,02:10,0.898,1.442,0.910,1.712,1.169,0.498,0.904,0.843,���쐼,3.1,��
2017/11/06,02:20,0.898,1.442,0.910,1.713,1.173,0.497,0.905,0.844,���쐼,2.9,��
2017/11/06,02:30,0.899,1.443,0.907,1.711,1.170,0.497,0.904,0.842,���쐼,2.9,��
2017/11/06,02:40,0.898,1.444,0.908,1.713,1.171,0.494,0.905,0.843,���쐼,3.0,��
2017/11/06,02:50,0.898,1.442,0.909,1.711,1.172,0.495,0.903,0.842,���쐼,3.0,��
2017/11/06,03:00,0.895,1.442,0.908,1.714,1.173,0.494,0.903,0.843,�쐼,3.1,��
2017/11/06,03:10,0.899,1.443,0.909,1.711,1.171,0.496,0.906,0.844,�쐼,2.8,��
2017/11/06,03:20,0.899,1.445,0.910,1.710,1.174,0.496,0.906,0.844,��쐼,2.6,��
2017/11/06,03:30,0.896,1.443,0.910,1.711,1.171,0.497,0.906,0.844,��쐼,2.6,��
2017/11/06,03:40,0.898,1.442,0.910,1.710,1.170,0.496,0.905,0.842,��쐼,3.4,��
2017/11/06,03:50,0.896,1.441,0.909,1.711,1.172,0.496,0.905,0.843,��쐼,4.3,��
2017/11/06,04:00,0.897,1.441,0.908,1.714,1.171,0.496,0.904,0.844,��,4.7,��
2017/11/06,04:10,0.896,1.443,0.907,1.711,1.170,0.496,0.905,0.842,��쐼,3.5,��
2017/11/06,04:20,0.898,1.441,0.909,1.714,1.172,0.498,0.907,0.844,��쐼,3.9,��
2017/11/06,04:30,0.898,1.440,0.907,1.711,1.170,0.495,0.905,0.842,��쐼,4.7,��
2017/11/06,04:40,0.898,1.442,0.909,1.712,1.170,0.495,0.904,0.842,��쐼,5.0,��
2017/11/06,04:50,0.897,1.442,0.910,1.711,1.171,0.495,0.904,0.843,��쐼,4.9,��
2017/11/06,05:00,0.897,1.442,0.909,1.712,1.170,0.495,0.905,0.844,��쐼,4.5,��
2017/11/06,05:10,0.898,1.441,0.908,1.711,1.170,0.495,0.905,0.844,��쐼,4.3,��
2017/11/06,05:20,0.897,1.442,0.907,1.711,1.168,0.496,0.906,0.845,��쐼,4.0,��
2017/11/06,05:30,0.897,1.439,0.909,1.710,1.170,0.496,0.905,0.842,��쐼,3.2,��
2017/11/06,05:40,0.898,1.442,0.908,1.714,1.171,0.495,0.905,0.844,��쐼,3.9,��
2017/11/06,05:50,0.894,1.440,0.908,1.711,1.170,0.497,0.905,0.844,��,4.3,��
2017/11/06,06:00,0.899,1.440,0.909,1.711,1.171,0.495,0.905,0.843,��쐼,5.3,��
2017/11/06,06:10,0.897,1.439,0.906,1.709,1.170,0.495,0.903,0.842,��쐼,5.3,��
2017/11/06,06:20,0.898,1.443,0.908,1.711,1.168,0.495,0.905,0.844,��쐼,4.5,��
2017/11/06,06:30,0.896,1.442,0.910,1.711,1.169,0.495,0.905,0.844,�쐼,4.7,��
2017/11/06,06:40,0.898,1.441,0.905,1.711,1.170,0.496,0.904,0.844,�쐼,3.6,��
2017/11/06,06:50,0.897,1.441,0.908,1.711,1.172,0.496,0.906,0.842,�쐼,3.9,��
2017/11/06,07:00,0.898,1.441,0.910,1.712,1.172,0.497,0.906,0.843,�쐼,3.9,��
2017/11/06,07:10,0.900,1.441,0.909,1.714,1.172,0.494,0.904,0.844,�쐼,3.3,��
2017/11/06,07:20,0.899,1.443,0.908,1.711,1.169,0.496,0.907,0.843,�쐼,4.0,��
2017/11/06,07:30,0.898,1.441,0.909,1.712,1.165,0.498,0.906,0.844,�쐼,4.5,��
2017/11/06,07:40,0.898,1.443,0.909,1.713,1.160,0.496,0.906,0.845,�쐼,3.7,��
2017/11/06,07:50,0.900,1.444,0.911,1.712,1.159,0.497,0.905,0.844,��쐼,4.4,��
2017/11/06,08:00,0.901,1.443,0.910,1.712,1.158,0.498,0.907,0.845,��쐼,2.6,��
2017/11/06,08:10,0.902,1.445,0.911,1.715,1.159,0.497,0.908,0.845,��,2.0,��
2017/11/06,08:20,0.903,1.444,0.911,1.717,1.159,0.499,0.908,0.844,��,2.3,��
2017/11/06,08:30,0.903,1.443,0.910,1.713,1.161,0.497,0.908,0.845,��,2.5,��
2017/11/06,08:40,0.902,1.444,0.912,1.715,1.163,0.499,0.908,0.844,��쐼,3.1,��
2017/11/06,08:50,0.902,1.441,0.913,1.715,1.160,0.499,0.906,0.844,��,3.1,��
2017/11/06,09:00,0.902,1.442,0.912,1.716,1.160,0.499,0.907,0.845,��,4.0,��
2017/11/06,09:10,0.905,1.441,0.913,1.715,1.163,0.498,0.906,0.845,��,3.6,��
2017/11/06,09:20,0.903,1.441,0.913,1.717,1.164,0.500,0.906,0.846,��,4.7,��
2017/11/06,09:30,0.905,1.442,0.913,1.719,1.165,0.499,0.905,0.845,��쐼,5.0,��
2017/11/06,09:40,0.904,1.441,0.912,1.717,1.167,0.499,0.905,0.846,��,4.1,��
2017/11/06,09:50,0.903,1.444,0.914,1.718,1.164,0.499,0.906,0.847,��,4.4,��
2017/11/06,10:00,0.902,1.443,0.912,1.717,1.165,0.498,0.907,0.847,��,4.3,��
2017/11/06,10:10,0.906,1.443,0.914,1.717,1.164,0.499,0.907,0.846,��,4.8,��
2017/11/06,10:20,0.903,1.443,0.912,1.719,1.165,0.497,0.906,0.846,��쓌,4.6,��
2017/11/06,10:30,0.905,1.447,0.913,1.718,1.167,0.495,0.909,0.847,��쓌,4.9,��
2017/11/06,10:40,0.902,1.446,0.912,1.716,1.169,0.497,0.908,0.848,��,5.1,��
2017/11/06,10:50,0.906,1.445,0.914,1.722,1.165,0.498,0.906,0.847,��,5.2,��
2017/11/06,11:00,0.906,1.445,0.915,1.720,1.166,0.497,0.909,0.846,��,5.2,��
2017/11/06,11:10,0.904,1.443,0.913,1.719,1.171,0.497,0.907,0.846,��쓌,7.6,��
2017/11/06,11:20,0.907,1.447,0.913,1.721,1.168,0.500,0.908,0.847,��쓌,8.4,��
2017/11/06,11:30,0.904,1.448,0.914,1.722,1.169,0.498,0.909,0.845,��쓌,10.5,��
2017/11/06,11:40,0.904,1.448,0.913,1.721,1.168,0.497,0.909,0.847,��쓌,9.2,��
2017/11/06,11:50,0.904,1.452,0.914,1.718,1.170,0.498,0.910,0.848,��쓌,8.7,��
2017/11/06,12:00,0.904,1.451,0.916,1.721,1.169,0.499,0.907,0.847,��쓌,7.2,��
2017/11/06,12:10,0.907,1.453,0.917,1.723,1.170,0.498,0.910,0.847,��쓌,8.7,��
2017/11/06,12:20,0.907,1.455,0.916,1.720,1.172,0.500,0.909,0.844,��쓌,9.0,��
2017/11/06,12:30,0.907,1.457,0.915,1.719,1.171,0.500,0.908,0.846,��쓌,7.9,��
2017/11/06,12:40,0.905,1.456,0.916,1.722,1.174,0.501,0.910,0.843,��,6.9,��
2017/11/06,12:50,0.907,1.458,0.914,1.721,1.171,0.502,0.909,0.845,��,7.1,��
2017/11/06,13:00,0.906,1.453,0.915,1.722,1.172,0.499,0.909,0.846,��쓌,8.0,��
2017/11/06,13:10,0.906,1.455,0.916,1.721,1.172,0.500,0.908,0.844,��,6.4,��
2017/11/06,13:20,0.909,1.453,0.915,1.719,1.172,0.501,0.909,0.842,��,6.5,��
2017/11/06,13:30,0.908,1.453,0.916,1.720,1.168,0.501,0.909,0.845,��,7.5,��
2017/11/06,13:40,0.908,1.452,0.917,1.722,1.172,0.500,0.910,0.845,��,6.8,��
2017/11/06,13:50,0.908,1.453,0.915,1.724,1.171,0.501,0.910,0.844,��,8.2,��
2017/11/06,14:00,0.909,1.453,0.917,1.723,1.174,0.501,0.908,0.844,��,7.1,��
2017/11/06,14:10,0.907,1.455,0.917,1.725,1.171,0.500,0.909,0.844,��,7.6,��
2017/11/06,14:20,0.909,1.449,0.915,1.722,1.171,0.502,0.910,0.845,��,6.5,��
2017/11/06,14:30,0.909,1.450,0.916,1.722,1.171,0.501,0.911,0.844,��,7.5,��
2017/11/06,14:40,0.907,1.455,0.917,1.722,1.170,0.502,0.912,0.845,��,7.7,��
2017/11/06,14:50,0.908,1.453,0.916,1.723,1.169,0.501,0.912,0.845,��,6.9,��
2017/11/06,15:00,0.910,1.455,0.918,1.715,1.171,0.504,0.912,0.845,��,6.7,��
2017/11/06,15:10,0.909,1.454,0.918,1.687,1.172,0.502,0.913,0.844,��,6.1,��
2017/11/06,15:20,0.907,1.457,0.917,1.723,1.170,0.501,0.910,0.844,��,5.9,��
2017/11/06,15:30,0.909,1.457,0.916,1.723,1.171,0.502,0.914,0.846,��,6.8,��
2017/11/06,15:40,0.909,1.458,0.916,1.722,1.174,0.502,0.915,0.842,��,6.5,��
2017/11/06,15:50,0.907,1.460,0.915,1.726,1.172,0.502,0.911,0.846,��,6.0,��
2017/11/06,16:00,0.906,1.458,0.915,1.724,1.171,0.503,0.910,0.847,��,6.8,��
2017/11/06,16:10,0.909,1.453,0.916,1.724,1.171,0.504,0.912,0.848,��,6.8,��
2017/11/06,16:20,0.906,1.459,0.916,1.724,1.172,0.504,0.913,0.847,��,7.4,��
2017/11/06,16:30,0.908,1.458,0.917,1.723,1.173,0.504,0.911,0.848,��,7.5,��
2017/11/06,16:40,0.905,1.460,0.917,1.721,1.169,0.503,0.913,0.848,��,9.3,��
2017/11/06,16:50,0.905,1.458,0.916,1.724,1.170,0.504,0.911,0.847,��쐼,9.0,��
2017/11/06,17:00,0.907,1.463,0.917,1.720,1.173,0.505,0.911,0.848,��쐼,7.3,��
2017/11/06,17:10,0.908,1.459,0.920,1.722,1.176,0.504,0.910,0.846,��쐼,7.1,��
2017/11/06,17:20,0.907,1.461,0.920,1.721,1.173,0.504,0.913,0.845,��쐼,6.9,��
2017/11/06,17:30,0.909,1.460,0.920,1.722,1.174,0.506,0.909,0.846,��쐼,7.6,��
2017/11/06,17:40,0.908,1.459,0.919,1.723,1.177,0.504,0.911,0.847,�쐼,6.8,��
2017/11/06,17:50,0.910,1.459,0.920,1.722,1.177,0.506,0.911,0.848,��쐼,6.2,��
2017/11/06,18:00,0.907,1.460,0.917,1.723,1.178,0.504,0.910,0.846,��쐼,6.2,��
2017/11/06,18:10,0.908,1.456,0.918,1.721,1.177,0.503,0.910,0.849,��쐼,6.8,��
2017/11/06,18:20,0.909,1.458,0.921,1.721,1.177,0.503,0.910,0.847,��쐼,7.4,��
2017/11/06,18:30,0.908,1.456,0.920,1.718,1.178,0.504,0.911,0.846,��쐼,6.9,��
2017/11/06,18:40,0.906,1.457,0.918,1.724,1.175,0.504,0.912,0.846,��쐼,7.2,��
2017/11/06,18:50,0.909,1.459,0.918,1.724,1.177,0.502,0.909,0.846,��쐼,6.8,��
2017/11/06,19:00,0.909,1.457,0.918,1.722,1.176,0.503,0.910,0.844,��,6.5,��
2017/11/06,19:10,0.908,1.456,0.921,1.720,1.173,0.504,0.911,0.845,��쐼,5.7,��
2017/11/06,19:20,0.909,1.456,0.919,1.722,1.175,0.502,0.908,0.846,��쐼,4.6,��
2017/11/06,19:30,0.907,1.458,0.918,1.722,1.178,0.504,0.911,0.848,��쐼,3.6,��
2017/11/06,19:40,0.910,1.455,0.917,1.721,1.176,0.502,0.910,0.847,�쐼,3.8,��
2017/11/06,19:50,0.908,1.456,0.920,1.722,1.176,0.503,0.909,0.845,�쐼,3.1,��
2017/11/06,20:00,0.910,1.455,0.919,1.718,1.174,0.502,0.910,0.846,��쐼,4.8,��
2017/11/06,20:10,0.909,1.454,0.920,1.723,1.174,0.503,0.911,0.845,�쐼,5.1,��
2017/11/06,20:20,0.909,1.454,0.917,1.721,1.175,0.501,0.911,0.846,�쐼,5.0,��
2017/11/06,20:30,0.911,1.456,0.919,1.722,1.174,0.500,0.909,0.846,�쐼,4.4,��
2017/11/06,20:40,0.908,1.457,0.920,1.722,1.176,0.502,0.908,0.846,���쐼,3.8,��
2017/11/06,20:50,0.907,1.454,0.918,1.719,1.174,0.501,0.912,0.846,�쐼,3.1,��
2017/11/06,21:00,0.909,1.458,0.918,1.720,1.175,0.501,0.911,0.847,�쐼,3.8,��
2017/11/06,21:10,0.906,1.456,0.919,1.721,1.176,0.501,0.910,0.845,��쐼,4.2,��
2017/11/06,21:20,0.907,1.456,0.919,1.721,1.179,0.501,0.910,0.847,��쐼,3.8,��
2017/11/06,21:30,0.907,1.453,0.917,1.720,1.174,0.502,0.910,0.845,��,2.0,��
2017/11/06,21:40,0.907,1.455,0.917,1.721,1.177,0.500,0.908,0.847,��,1.2,��
2017/11/06,21:50,0.907,1.455,0.920,1.722,1.175,0.500,0.910,0.845,��,1.7,��
2017/11/06,22:00,0.907,1.455,0.916,1.720,1.176,0.500,0.910,0.847,��,0.9,��
2017/11/06,22:10,0.910,1.454,0.917,1.720,1.174,0.501,0.908,0.844,��,0.9,��
2017/11/06,22:20,0.909,1.453,0.919,1.719,1.172,0.501,0.908,0.845,��쓌,0.8,��
2017/11/06,22:30,0.910,1.453,0.919,1.723,1.174,0.503,0.911,0.846,��,1.2,��
2017/11/06,22:40,0.911,1.454,0.917,1.718,1.174,0.501,0.908,0.846,��쐼,1.7,��
2017/11/06,22:50,0.910,1.451,0.919,1.720,1.173,0.501,0.909,0.846,��쐼,2.3,��
2017/11/06,23:00,0.909,1.456,0.915,1.719,1.174,0.501,0.909,0.845,��쐼,3.9,��
2017/11/06,23:10,0.909,1.452,0.919,1.717,1.173,0.500,0.908,0.846,��,3.7,��
2017/11/06,23:20,0.907,1.452,0.917,1.724,1.176,0.499,0.908,0.845,��,2.5,��
2017/11/06,23:30,0.910,1.454,0.916,1.720,1.174,0.500,0.908,0.845,���쐼,0.8,��
2017/11/06,23:40,0.910,1.454,0.918,1.721,1.175,0.501,0.910,0.846,�쐼,2.8,��
2017/11/06,23:50,0.908,1.452,0.916,1.719,1.176,0.500,0.909,0.846,�쐼,3.2,��
